| time (UTC) | temp F | wind direction | speed knots | gust knots | rain 1hr in | rain 24hr in | rain mn in | humidity % | barometer mb |
| 20260902003010 | 65 | 251 | 7.0 | 13.9 | 0.00 | 0.00 | 0.00 | 85 | 1013.1 |
| 20260902001512 | 65 | 213 | 7.0 | 11.3 | 0.00 | 0.00 | 0.00 | 84 | 1013.0 |
| 20260902000015 | 65 | 174 | 7.0 | 11.3 | 0.00 | 0.00 | 0.00 | 84 | 1013.0 |
| 20260901234509 | 66 | 261 | 4.3 | 12.2 | 0.00 | 0.00 | 0.00 | 84 | 1013.0 |
| 20260901233010 | 67 | 195 | 7.0 | 12.2 | 0.00 | 0.00 | 0.00 | 80 | 1013.0 |
| 20260901231508 | 68 | 189 | 7.0 | 14.8 | 0.00 | 0.00 | 0.00 | 77 | 1013.2 |
| 20260901230011 | 69 | 211 | 9.6 | 15.6 | 0.00 | 0.00 | 0.00 | 76 | 1013.2 |
| 20260901224506 | 68 | 203 | 4.3 | 17.4 | 0.00 | 0.00 | 0.00 | 77 | 1013.2 |
| 20260901223014 | 68 | 205 | 9.6 | 17.4 | 0.00 | 0.00 | 0.00 | 77 | 1013.3 |
| 20260901221502 | 67 | 222 | 1.7 | 13.9 | 0.00 | 0.00 | 0.00 | 79 | 1013.1 |
| 20260901220001 | 67 | 201 | 6.1 | 14.8 | 0.00 | 0.00 | 0.00 | 81 | 1013.1 |
| 20260901214501 | 66 | 219 | 7.8 | 13.0 | 0.00 | 0.00 | 0.00 | 82 | 1013.1 |
| 20260901213108 | 66 | 197 | 9.6 | 15.6 | 0.00 | 0.00 | 0.00 | 83 | 1013.1 |
| 20260901211600 | 66 | 197 | 8.7 | 14.8 | 0.00 | 0.00 | 0.00 | 83 | 1013.2 |
| 20260901210059 | 67 | 199 | 4.3 | 13.0 | 0.00 | 0.00 | 0.00 | 83 | 1013.2 |
| 20260901204559 | 66 | 255 | 6.1 | 14.8 | 0.00 | 0.00 | 0.00 | 82 | 1013.2 |
| 20260901203104 | 67 | 214 | 6.1 | 13.9 | 0.00 | 0.00 | 0.00 | 82 | 1013.2 |
| 20260901201556 | 66 | 222 | 6.1 | 13.0 | 0.00 | 0.00 | 0.00 | 84 | 1013.1 |
| 20260901200106 | 66 | 294 | 2.6 | 11.3 | 0.00 | 0.00 | 0.00 | 85 | 1013.2 |
| 20260901194603 | 66 | 268 | 6.1 | 13.9 | 0.00 | 0.00 | 0.00 | 84 | 1013.4 |
| 20260901193101 | 66 | 202 | 3.5 | 10.4 | 0.00 | 0.00 | 0.00 | 88 | 1013.5 |
| 20260901191553 | 66 | 219 | 5.2 | 11.3 | 0.00 | 0.00 | 0.00 | 87 | 1013.5 |
| 20260901184552 | 66 | 194 | 5.2 | 12.2 | 0.00 | 0.00 | 0.00 | 85 | 1013.7 |
| 20260901183051 | 66 | 262 | 3.5 | 10.4 | 0.00 | 0.00 | 0.00 | 86 | 1013.6 |
| 20260901181549 | 65 | 198 | 0.9 | 8.7 | 0.00 | 0.00 | 0.00 | 87 | 1013.5 |
| 20260901180046 | 65 | 216 | 4.3 | 12.2 | 0.00 | 0.00 | 0.00 | 87 | 1013.5 |
| 20260901174556 | 65 | 243 | 2.6 | 11.3 | 0.00 | 0.00 | 0.00 | 88 | 1013.5 |
| 20260901173039 | 64 | 199 | 4.3 | 9.6 | 0.00 | 0.00 | 0.00 | 91 | 1013.4 |
| 20260901171539 | 63 | 212 | 5.2 | 8.7 | 0.00 | 0.00 | 0.00 | 91 | 1013.4 |
| 20260901170112 | 63 | 206 | 5.2 | 10.4 | 0.00 | 0.00 | 0.00 | 90 | 1013.4 |
| 20260901164537 | 63 | 204 | 2.6 | 5.2 | 0.00 | 0.00 | 0.00 | 91 | 1013.3 |
| 20260901163034 | 63 | 225 | 0.0 | 1.7 | 0.00 | 0.00 | 0.00 | 93 | 1013.2 |
| 20260901161531 | 62 | 176 | 1.7 | 5.2 | 0.00 | 0.00 | 0.00 | 93 | 1013.3 |
| 20260901160034 | 61 | 171 | 0.9 | 2.6 | 0.00 | 0.00 | 0.00 | 96 | 1013.3 |
| 20260901154525 | 60 | 178 | 0.0 | 2.6 | 0.00 | 0.00 | 0.00 | 97 | 1013.4 |
| 20260901153023 | 60 | 178 | 0.9 | 2.6 | 0.00 | 0.00 | 0.00 | 97 | 1013.3 |
| 20260901151523 | 59 | 176 | 0.9 | 3.5 | 0.00 | 0.00 | 0.00 | 98 | 1013.4 |
| 20260901150022 | 59 | 171 | 0.0 | 1.7 | 0.00 | 0.00 | 0.00 | 100 | 1013.2 |
| 20260901144521 | 59 | 174 | 0.0 | 2.6 | 0.00 | 0.00 | 0.00 | 100 | 1013.1 |
| 20260901143020 | 58 | 175 | 1.7 | 4.3 | 0.00 | 0.00 | 0.00 | 100 | 1013.3 |
| 20260901141519 | 58 | 182 | 0.9 | 3.5 | 0.00 | 0.00 | 0.00 | 100 | 1013.2 |
| 20260901140022 | 58 | 180 | 0.0 | 3.5 | 0.00 | 0.00 | 0.00 | 100 | 1013.1 |
| 20260901134518 | 57 | 176 | 0.0 | 1.7 | 0.00 | 0.00 | 0.00 | 100 | 1013.0 |
| 20260901133016 | 57 | 176 | 0.0 | 0.9 | 0.00 | 0.00 | 0.00 | 100 | 1013.1 |
| 20260901131523 | 57 | 176 | 0.0 | 0.9 | 0.00 | 0.00 | 0.00 | 100 | 1013.0 |
| 20260901130014 | 58 | 176 | 0.0 | 0.9 | 0.00 | 0.00 | 0.00 | 100 | 1013.0 |
| 20260901124514 | 58 | 176 | 0.0 | 1.7 | 0.00 | 0.00 | 0.00 | 100 | 1013.1 |
| 20260901123012 | 58 | 176 | 1.7 | 3.5 | 0.00 | 0.00 | 0.00 | 100 | 1013.2 |
| 20260901121511 | 58 | 191 | 1.7 | 3.5 | 0.00 | 0.00 | 0.00 | 100 | 1013.2 |
| 20260901120010 | 58 | 182 | 0.9 | 5.2 | 0.00 | 0.00 | 0.00 | 100 | 1013.2 |
| 20260901114510 | 58 | 180 | 1.7 | 5.2 | 0.00 | 0.00 | 0.00 | 100 | 1013.2 |
| 20260901113009 | 58 | 203 | 0.9 | 5.2 | 0.00 | 0.00 | 0.00 | 100 | 1013.2 |
| 20260901111507 | 58 | 207 | 0.9 | 3.5 | 0.00 | 0.00 | 0.00 | 99 | 1013.2 |
| 20260901110005 | 59 | 211 | 0.0 | 2.6 | 0.00 | 0.00 | 0.00 | 99 | 1013.1 |
| 20260901104504 | 59 | 211 | 0.9 | 3.5 | 0.00 | 0.00 | 0.00 | 99 | 1012.9 |
| 20260901103002 | 59 | 211 | 1.7 | 4.3 | 0.00 | 0.00 | 0.00 | 98 | 1012.9 |
| 20260901101502 | 59 | 219 | 0.9 | 3.5 | 0.00 | 0.00 | 0.00 | 97 | 1012.9 |
| 20260901100110 | 59 | 182 | 0.9 | 5.2 | 0.00 | 0.00 | 0.00 | 97 | 1012.9 |
| 20260901094603 | 59 | 178 | 0.9 | 5.2 | 0.00 | 0.00 | 0.00 | 96 | 1012.8 |
| 20260901093057 | 59 | 189 | 0.9 | 3.5 | 0.00 | 0.00 | 0.00 | 96 | 1012.8 |
| 20260901091557 | 59 | 185 | 0.9 | 6.1 | 0.00 | 0.00 | 0.00 | 96 | 1012.9 |
| 20260901084607 | 59 | 182 | 2.6 | 6.1 | 0.00 | 0.00 | 0.00 | 96 | 1013.0 |
| 20260901083052 | 60 | 190 | 1.7 | 7.8 | 0.00 | 0.00 | 0.00 | 96 | 1013.0 |
| 20260901081550 | 60 | 199 | 1.7 | 6.1 | 0.00 | 0.00 | 0.00 | 96 | 1013.0 |
| 20260901080051 | 60 | 210 | 3.5 | 7.8 | 0.00 | 0.00 | 0.00 | 96 | 1013.1 |
| 20260901074547 | 59 | 209 | 1.7 | 6.1 | 0.00 | 0.00 | 0.00 | 97 | 1013.0 |
| 20260901073045 | 60 | 209 | 2.6 | 5.2 | 0.00 | 0.00 | 0.00 | 97 | 1012.8 |
| 20260901071545 | 60 | 212 | 1.7 | 5.2 | 0.00 | 0.00 | 0.00 | 97 | 1012.7 |
| 20260901070042 | 60 | 206 | 0.9 | 3.5 | 0.00 | 0.00 | 0.00 | 97 | 1012.6 |
| 20260901064541 | 60 | 203 | 1.7 | 7.0 | 0.00 | 0.00 | 0.00 | 97 | 1012.8 |
| 20260901063040 | 60 | 203 | 0.9 | 3.5 | 0.00 | 0.00 | 0.00 | 98 | 1012.7 |
| 20260901061548 | 60 | 211 | 0.9 | 2.6 | 0.00 | 0.00 | 0.00 | 98 | 1012.8 |
| 20260901060046 | 60 | 203 | 1.7 | 6.1 | 0.00 | 0.00 | 0.00 | 98 | 1012.8 |
| 20260901054538 | 60 | 232 | 2.6 | 6.1 | 0.00 | 0.00 | 0.00 | 98 | 1012.7 |
| 20260901053047 | 60 | 212 | 2.6 | 6.1 | 0.00 | 0.00 | 0.00 | 98 | 1012.7 |
| 20260901051540 | 60 | 204 | 1.7 | 5.2 | 0.00 | 0.00 | 0.00 | 98 | 1012.6 |
| 20260901050040 | 60 | 208 | 0.9 | 6.1 | 0.00 | 0.00 | 0.00 | 98 | 1012.7 |
| 20260901044536 | 60 | 216 | 2.6 | 6.1 | 0.00 | 0.00 | 0.00 | 98 | 1012.8 |
| 20260901043036 | 60 | 201 | 0.9 | 3.5 | 0.00 | 0.00 | 0.00 | 98 | 1012.6 |
| 20260901041535 | 60 | 198 | 0.9 | 3.5 | 0.00 | 0.00 | 0.00 | 98 | 1012.5 |
| 20260901040037 | 60 | 210 | 0.0 | 2.6 | 0.00 | 0.00 | 0.00 | 97 | 1012.3 |
| 20260901034536 | 60 | 213 | 0.0 | 2.6 | 0.00 | 0.00 | 0.00 | 97 | 1012.1 |
| 20260901033034 | 60 | 204 | 0.9 | 3.5 | 0.00 | 0.00 | 0.00 | 97 | 1012.1 |
| 20260901031547 | 60 | 204 | 0.0 | 2.6 | 0.00 | 0.00 | 0.00 | 97 | 1011.9 |
| 20260901030033 | 61 | 215 | 0.0 | 0.9 | 0.00 | 0.00 | 0.00 | 96 | 1011.9 |
| 20260901024533 | 61 | 207 | 0.9 | 3.5 | 0.00 | 0.00 | 0.00 | 96 | 1012.0 |
| 20260901023037 | 61 | 213 | 1.7 | 7.0 | 0.00 | 0.00 | 0.00 | 95 | 1012.1 |
| 20260901021531 | 62 | 257 | 0.9 | 5.2 | 0.00 | 0.00 | 0.00 | 93 | 1012.1 |
| 20260901020031 | 63 | 211 | 2.6 | 6.1 | 0.00 | 0.00 | 0.00 | 92 | 1012.1 |
| 20260901014531 | 65 | 201 | 1.7 | 6.1 | 0.00 | 0.00 | 0.00 | 88 | 1012.0 |
| 20260901013032 | 68 | 201 | 1.7 | 7.8 | 0.00 | 0.00 | 0.00 | 82 | 1011.9 |
| 20260901011528 | 68 | 234 | 0.0 | 2.6 | 0.00 | 0.00 | 0.00 | 82 | 1011.8 |
| 20260901010035 | 69 | 280 | 1.7 | 7.0 | 0.00 | 0.00 | 0.00 | 81 | 1011.6 |
| 20260901004527 | 69 | 275 | 1.7 | 7.0 | 0.00 | 0.00 | 0.00 | 76 | 1011.5 |